{"data":{"norad_id":64714,"epoch":"2026-09-20T04:35:29.257440Z","epoch_age_seconds":154324,"freshness":"FRESH","line1":"1 64714U 25142U   26263.19131085  .00011857  00000+0  41643-3 0  9995","line2":"2 64714  70.0000 181.7192 0002865 268.8977  91.1870 15.29566445 68689","mean_motion":15.29566445,"eccentricity":0.0002865,"inclination_deg":70,"raan_deg":181.7192,"arg_perigee_deg":268.8977,"mean_anomaly_deg":91.187,"bstar":0.00041643,"rev_number":6868,"period_min":94.144324668419,"perigee_km":475.14337585274,"apogee_km":479.07143089587,"semimajor_km":6855.2444033743,"source":"CELESTRAK","updated_at":"2026-09-21T09:00:35.406857Z"}}